Wind_Speed
11 11 10 9 8 6 5 5 4 4 4 5 6 8 10 12 14 15 15 15 16 16 16 17 17 16 15 14 13 12 11 11 12 14 17 19 19 19 18 16 14 13 12
14 13 13 12 11 10 9 8 7 6 6 7 8 9 10 12 14 16 18 19 20 20 20 20 20 20 19 18 17 16 14 13 13 14 16 18 20 20 20 18 16 14 13
16 16 15 15 14 14 13 12 11 10 9 9 10 11 12 13 15 16 18 21 22 24 24 24 24 24 23 23 22 20 19 18 16 16 16 18 20 21 22 20 18 16 15
18 18 17 17 17 16 16 15 14 13 13 12 12 13 13 15 16 17 18 20 22 24 25 26 27 27 27 26 25 24 23 22 20 19 18 18 20 21 23 22 20 17 16
20 19 19 19 19 18 18 17 17 16 16 16 16 16 16 17 17 18 19 20 22 23 24 25 26 27 27 27 26 26 25 24 23 22 20 20 19 20 22 23 22 19 17
22 21 20 20 20 20 20 20 19 19 19 19 19 19 19 19 19 20 20 21 22 24 24 25 25 25 26 26 26 26 25 24 24 23 22 21 20 20 22 24 24 22 19
24 23 22 21 21 21 21 22 22 22 22 22 21 21 21 21 22 22 22 22 23 24 25 25 25 24 25 25 24 25 24 24 23 23 23 22 21 21 21 23 25 24 21
27 25 24 23 22 22 23 23 23 24 24 24 23 23 23 24 24 23 23 23 24 25 25 25 25 24 24 24 24 24 24 24 23 23 23 23 23 22 22 23 25 25 23
29 27 26 25 24 24 24 24 24 24 25 25 25 25 26 26 26 25 25 24 25 25 25 25 25 24 24 24 24 24 24 25 24 23 23 24 24 24 23 23 25 25 25
30 28 27 26 25 25 25 24 24 25 25 26 26 26 27 28 29 27 27 26 25 25 25 25 25 24 24 24 25 25 26 26 25 24 24 24 25 25 25 24 24 26 25
31 28 27 27 26 25 25 25 25 25 25 26 26 27 27 28 29 29 29 28 27 26 25 25 25 24 24 24 25 26 26 27 27 26 25 25 25 26 26 26 26 26 26
31 28 27 26 26 25 25 25 25 24 24 25 26 27 27 27 29 29 29 29 28 27 26 27 27 26 25 24 25 26 27 27 28 27 27 26 26 26 27 27 28 28 28
31 28 26 25 24 24 25 24 24 24 24 24 25 25 26 26 26 27 28 29 29 27 26 27 27 27 26 24 24 25 27 27 28 29 28 28 27 27 26 27 28 28 28
28 24 23 22 22 23 23 23 23 23 24 24 24 24 24 25 25 25 26 28 28 28 27 27 27 27 27 25 24 24 26 27 28 29 29 29 29 28 27 27 27 27 27
21 19 20 20 21 21 22 22 22 22 23 23 23 23 23 23 24 24 25 26 27 27 27 27 26 27 26 25 24 24 24 25 26 27 28 29 29 29 28 27 27 26 26
15 16 19 19 20 21 22 22 22 22 22 23 23 22 22 22 21 22 22 23 24 25 26 26 26 26 26 25 25 24 23 24 25 25 27 28 28 28 28 27 27 26 25
14 16 17 19 20 21 21 21 21 21 22 22 22 22 22 21 21 20 20 21 22 23 25 26 27 27 27 27 26 25 23 23 23 23 24 25 26 27 27 27 27 26 26
14 16 17 18 19 20 20 20 20 20 21 21 22 22 22 21 21 20 20 20 20 21 23 25 26 26 27 28 27 26 24 23 23 22 22 22 23 24 25 26 26 26 26
14 16 17 18 19 19 19 19 19 19 20 20 21 22 22 22 21 20 20 20 20 20 22 24 25 26 26 27 28 28 26 25 25 24 22 22 21 22 23 24 24 24 25
15 16 17 18 18 19 19 20 20 20 20 21 21 21 22 22 22 21 20 21 21 20 21 22 24 25 26 28 29 29 29 28 28 27 26 25 23 23 23 23 23 24 24
15 17 18 18 19 20 20 21 21 21 21 22 22 22 22 22 22 22 21 22 22 21 21 21 22 23 24 26 27 29 30 31 31 30 29 28 27 26 26 25 25 25 25
17 18 19 19 20 21 21 22 22 22 22 22 22 22 22 22 22 23 23 23 23 23 23 22 22 23 23 25 27 26 28 30 31 33 33 33 32 31 30 29 29 28 28
19 20 21 21 22 22 22 22 22 22 23 23 23 23 23 22 22 22 23 24 24 23 24 24 23 23 23 23 24 25 26 27 29 31 33 34 34 34 34 33 33 33 32
20 21 21 22 22 22 22 22 22 23 24 23 22 22 22 22 22 22 23 23 24 24 24 24 24 24 24 24 24 25 26 27 28 29 31 33 34 35 37 37 38 38 37
20 21 22 22 23 22 22 22 22 23 23 22 22 22 22 22 22 22 22 23 23 23 24 24 24 25 25 25 25 25 26 26 26 28 30 33 35 36 37 38 39 40 40
20 20 21 21 22 22 22 22 22 22 22 22 21 21 21 21 21 22 22 22 23 23 23 23 24 24 25 25 25 25 25 26 26 27 29 30 32 34 36 38 39 40 41
Wind_Direction
262 262 264 266 269 276 283 285 288 286 279 274 267 262 258 255 251 249 247 244 242 239 238 237 235 236 237 240 243 247 249 249 246 242 239 234 231 229 229 230 234 237 237
258 259 261 263 265 268 273 276 277 282 283 281 279 275 268 263 259 255 253 251 249 248 247 246 244 243 243 245 248 249 252 253 252 249 245 239 235 231 229 230 234 238 239
256 258 259 261 262 265 269 272 274 282 286 286 283 280 276 271 266 263 260 257 254 252 251 251 250 247 247 248 250 251 252 252 252 251 248 244 240 235 230 229 232 237 240
254 256 258 260 261 264 264 268 272 278 283 285 283 282 280 277 273 269 265 262 259 257 255 253 252 251 250 250 251 251 251 251 251 251 249 248 246 239 231 228 230 235 240
252 254 256 258 259 259 259 263 269 275 279 281 281 281 281 279 278 274 271 267 264 260 257 254 253 252 252 251 251 251 250 250 249 249 249 249 248 242 234 230 230 233 238
252 252 253 255 258 259 261 263 270 274 277 280 282 278 278 278 279 278 276 273 269 264 260 257 254 253 252 252 251 250 249 248 248 247 247 247 247 245 239 234 231 232 235
251 251 252 253 256 258 260 263 269 272 276 277 281 278 277 277 277 277 278 276 273 268 263 258 256 253 252 252 251 249 247 247 247 245 245 245 245 244 242 237 233 232 234
249 250 252 253 255 256 258 263 267 271 275 276 278 279 279 279 277 274 276 277 275 271 265 259 256 253 252 251 249 247 245 244 245 245 244 243 243 243 243 240 237 234 235
248 249 253 254 255 256 260 266 269 272 275 276 275 277 278 279 279 276 276 277 276 272 266 261 257 254 252 250 247 245 243 242 244 246 245 242 241 241 243 244 241 237 238
247 248 252 255 257 259 264 268 271 273 275 276 276 276 275 277 277 277 276 277 275 272 266 262 258 254 251 249 247 244 242 241 243 244 245 242 241 241 242 244 245 243 242
246 245 250 255 260 264 267 269 272 273 274 275 275 275 275 275 274 275 276 276 275 273 266 261 256 254 251 250 248 245 243 242 242 244 244 243 242 242 242 244 245 246 245
247 246 249 254 260 264 267 271 272 273 273 274 275 275 274 274 273 274 275 275 275 273 265 259 254 252 251 250 248 245 244 244 244 244 245 244 243 243 244 244 245 246 247
251 248 250 254 259 264 268 271 272 273 273 273 274 275 275 273 273 273 273 274 275 271 264 256 252 250 249 250 249 246 245 246 246 246 247 246 244 244 245 246 247 247 248
250 248 253 256 260 265 268 270 272 272 272 273 273 273 273 272 271 271 271 271 270 266 261 253 250 248 247 247 248 247 246 247 247 247 247 246 245 245 246 248 248 248 248
245 249 252 256 261 265 268 270 271 272 272 272 272 273 273 272 271 270 270 270 267 261 253 249 247 245 244 244 245 247 248 247 246 246 247 246 245 245 246 247 247 247 247
237 245 250 256 261 266 268 269 270 272 273 272 272 272 272 272 271 270 270 271 267 257 249 244 246 245 243 243 243 246 247 245 244 244 245 245 245 245 246 247 247 247 248
243 250 256 260 263 267 271 272 273 274 274 272 271 271 271 270 270 269 270 272 265 254 246 243 245 243 242 242 242 243 245 245 244 243 244 244 244 245 246 247 248 248 249
254 258 262 266 268 271 274 275 275 276 275 274 272 271 270 270 269 268 267 270 265 256 249 244 244 243 242 240 239 241 242 243 243 243 243 244 245 245 247 248 249 249 250
265 269 270 272 275 276 277 279 279 279 278 276 273 271 269 268 268 267 265 265 266 260 251 245 244 243 242 239 237 238 240 241 243 243 243 244 245 245 247 249 249 250 250
274 274 275 276 277 278 280 280 279 279 278 276 274 271 268 266 265 265 263 262 262 260 254 249 246 246 243 240 239 240 241 241 243 244 245 245 246 247 249 249 249 250 251
281 281 281 277 278 279 280 280 279 279 278 276 273 270 267 265 264 263 261 259 259 257 255 252 249 247 244 241 240 242 241 242 243 246 248 247 248 249 250 252 252 252 253
284 283 281 279 280 281 279 279 279 279 277 275 272 270 268 265 263 261 258 257 256 255 253 252 251 250 248 245 244 244 243 244 245 247 248 248 249 250 252 254 255 255 255
284 283 283 282 281 279 278 276 277 277 276 274 272 270 267 265 263 261 258 256 254 253 252 252 253 253 252 250 247 247 248 250 250 250 248 248 250 252 253 255 255 255 257
287 286 284 283 282 281 279 277 276 275 275 274 272 269 266 264 262 261 259 256 254 253 252 252 252 252 254 253 252 252 251 252 250 251 251 250 251 253 255 255 255 256 258
290 288 286 285 283 281 280 279 277 276 275 274 271 268 265 263 262 260 258 257 255 253 251 251 252 253 253 254 255 255 253 255 255 255 254 254 255 255 256 257 257 257 258
293 290 288 286 283 282 281 279 278 276 274 272 270 269 266 264 261 259 258 257 255 254 253 253 253 253 254 255 255 256 257 257 257 258 258 258 259 260 259 258 259 259 259
Height
5896 5896 5895 5895 5895 5894 5893 5892 5892 5891 5890 5890 5889 5889 5890 5890 5890 5891 5891 5892 5892 5893 5894 5894 5895 5896 5897 5897 5897 5898 5898 5898 5899 5900 5901 5902 5904 5905 5907 5908 5909 5910 5910
5893 5893 5893 5892 5892 5892 5891 5891 5890 5890 5889 5888 5888 5888 5888 5888 5888 5888 5888 5889 5889 5890 5891 5891 5892 5893 5894 5894 5895 5895 5895 5896 5896 5897 5898 5899 5900 5902 5904 5906 5907 5908 5909
5890 5890 5889 5889 5889 5889 5889 5889 5888 5888 5887 5887 5886 5886 5885 5885 5884 5884 5884 5885 5885 5886 5886 5887 5888 5889 5890 5890 5891 5892 5892 5893 5893 5894 5895 5895 5897 5899 5900 5902 5904 5905 5906
5886 5886 5886 5885 5885 5885 5885 5885 5885 5885 5884 5884 5883 5883 5882 5882 5881 5881 5880 5880 5880 5881 5881 5882 5883 5884 5885 5886 5887 5888 5888 5889 5890 5890 5891 5892 5893 5895 5897 5899 5901 5903 5904
5881 5882 5881 5881 5881 5881 5881 5882 5881 5881 5881 5880 5880 5879 5879 5879 5878 5877 5876 5876 5875 5875 5876 5876 5877 5878 5879 5880 5881 5883 5884 5885 5886 5887 5887 5888 5889 5891 5893 5895 5897 5899 5901
5877 5877 5877 5876 5877 5877 5877 5878 5877 5877 5877 5876 5876 5875 5875 5875 5874 5873 5872 5871 5870 5870 5870 5871 5871 5872 5873 5875 5876 5877 5879 5880 5881 5882 5883 5885 5886 5887 5889 5891 5893 5896 5897
5871 5871 5871 5871 5872 5872 5873 5873 5873 5872 5872 5871 5871 5871 5870 5870 5869 5868 5867 5866 5866 5865 5865 5865 5866 5866 5868 5869 5870 5872 5874 5875 5877 5878 5879 5880 5882 5883 5885 5887 5889 5891 5893
5865 5865 5866 5866 5866 5867 5868 5868 5868 5867 5866 5866 5865 5865 5865 5864 5863 5863 5862 5861 5860 5859 5859 5859 5860 5861 5862 5863 5865 5867 5869 5871 5872 5873 5875 5876 5877 5879 5880 5882 5884 5886 5889
5858 5859 5860 5860 5861 5862 5862 5862 5862 5862 5861 5860 5860 5860 5859 5858 5857 5857 5856 5855 5854 5854 5853 5854 5854 5855 5856 5858 5859 5861 5863 5866 5867 5869 5870 5871 5873 5874 5876 5878 5880 5882 5884
5851 5852 5854 5854 5855 5855 5856 5856 5856 5855 5855 5854 5853 5853 5853 5852 5851 5850 5850 5849 5848 5848 5848 5848 5848 5849 5850 5852 5854 5856 5858 5860 5862 5864 5865 5867 5868 5870 5871 5873 5875 5877 5879
5844 5846 5847 5848 5849 5849 5849 5849 5849 5849 5848 5848 5847 5846 5846 5845 5844 5843 5843 5842 5842 5841 5842 5842 5843 5843 5844 5846 5848 5850 5852 5854 5856 5858 5860 5862 5863 5865 5866 5868 5870 5872 5874
5837 5838 5840 5841 5842 5843 5843 5843 5843 5843 5842 5841 5841 5840 5839 5838 5838 5837 5836 5835 5835 5834 5835 5836 5837 5838 5839 5840 5842 5844 5846 5848 5851 5853 5855 5856 5858 5859 5861 5863 5865 5866 5868
5829 5831 5833 5835 5836 5837 5837 5837 5836 5836 5835 5835 5834 5833 5832 5831 5830 5830 5829 5828 5828 5828 5828 5829 5830 5832 5833 5835 5837 5838 5841 5843 5845 5847 5849 5851 5852 5854 5856 5857 5859 5860 5862
5822 5824 5826 5828 5830 5830 5830 5830 5829 5829 5828 5828 5827 5826 5825 5824 5823 5822 5822 5821 5821 5821 5821 5823 5824 5826 5828 5829 5831 5833 5835 5837 5839 5841 5843 5845 5847 5849 5850 5852 5853 5855 5856
5815 5818 5821 5822 5823 5823 5823 5823 5822 5822 5821 5820 5820 5819 5818 5817 5816 5815 5815 5814 5814 5813 5815 5816 5818 5819 5821 5824 5826 5827 5830 5831 5833 5835 5837 5839 5841 5843 5845 5846 5848 5849 5850
5811 5813 5815 5816 5817 5817 5817 5816 5815 5815 5814 5813 5813 5812 5811 5811 5810 5809 5808 5807 5806 5807 5808 5810 5811 5813 5816 5818 5820 5822 5824 5826 5828 5829 5831 5833 5835 5837 5839 5840 5842 5843 5845
5807 5809 5809 5810 5810 5811 5810 5810 5809 5808 5807 5806 5806 5805 5805 5804 5804 5803 5802 5801 5800 5801 5802 5803 5805 5807 5810 5812 5814 5816 5819 5821 5822 5824 5826 5827 5829 5831 5833 5835 5836 5837 5839
5803 5803 5804 5804 5804 5804 5804 5803 5802 5801 5801 5800 5799 5799 5799 5798 5798 5797 5796 5796 5795 5795 5796 5798 5799 5801 5803 5806 5809 5811 5813 5815 5817 5819 5820 5822 5824 5826 5827 5829 5830 5832 5833
5798 5798 5798 5798 5798 5798 5797 5796 5796 5795 5795 5794 5793 5793 5792 5792 5792 5791 5791 5791 5791 5791 5791 5792 5793 5795 5797 5799 5802 5805 5807 5810 5812 5814 5815 5817 5819 5820 5822 5823 5824 5826 5827
5792 5792 5792 5792 5792 5791 5791 5790 5790 5789 5788 5788 5787 5786 5786 5786 5785 5785 5785 5786 5786 5786 5786 5786 5788 5789 5791 5793 5796 5799 5801 5803 5805 5807 5810 5811 5813 5815 5816 5818 5819 5820 5821
5787 5787 5786 5786 5785 5785 5784 5784 5784 5783 5782 5781 5780 5780 5780 5779 5779 5780 5780 5780 5780 5781 5781 5781 5782 5783 5785 5787 5789 5792 5794 5796 5798 5801 5803 5805 5807 5809 5810 5811 5813 5814 5815
5782 5781 5781 5780 5779 5778 5778 5777 5777 5776 5775 5774 5774 5773 5773 5773 5773 5774 5774 5774 5775 5775 5776 5776 5777 5778 5779 5781 5783 5784 5786 5789 5791 5794 5795 5798 5800 5802 5803 5805 5806 5807 5808
5777 5776 5775 5774 5773 5772 5772 5771 5770 5769 5768 5768 5767 5767 5767 5767 5767 5767 5768 5768 5769 5769 5770 5771 5772 5772 5774 5775 5776 5778 5779 5781 5783 5785 5787 5790 5792 5794 5795 5797 5798 5800 5801
5771 5770 5768 5767 5766 5766 5765 5764 5764 5763 5761 5761 5760 5761 5760 5760 5761 5761 5761 5762 5763 5763 5764 5765 5766 5767 5768 5769 5770 5771 5773 5774 5776 5777 5779 5781 5783 5784 5786 5788 5789 5791 5792
5765 5764 5762 5761 5760 5759 5759 5758 5757 5756 5755 5754 5754 5754 5754 5754 5755 5755 5755 5756 5757 5757 5758 5759 5760 5761 5762 5763 5765 5766 5767 5768 5769 5770 5771 5772 5773 5775 5776 5778 5779 5780 5782
5760 5758 5756 5755 5754 5753 5752 5751 5750 5749 5748 5748 5748 5748 5748 5748 5748 5748 5749 5750 5751 5751 5753 5754 5754 5755 5756 5758 5759 5760 5761 5762 5762 5763 5763 5764 5765 5766 5767 5768 5769 5770 5771